When you browse on this site, cookies collect data to enhance your experience and personalize the content and advertising you see.
Visit our Privacy Policy to learn more. By continuing to use the site, you agree to this use of cookies and data.
  • In Österreich
  • Länderverzeichnis
  • Für 7 Tage
  • Wassertemperatur
  • Satellitenkarten
  • Wetterkarte
  • News
  • Widgets
  • user-avatar
    Anmelden

    Stündliche Wetter Lankaran

    Heute, 25 März, Montag

    Zeit Temperatur Niederschläge Wind Luftdruck Luftfeuchtigkeit
    00:00 0°C° 0.1 mm 3 m/S 627 mmHg 92%
    01:00 0°C° 0.2 mm 3 m/S 627 mmHg 93%
    02:00 0°C° 0.2 mm 3 m/S 627 mmHg 93%
    03:00 -2°C° 0 mm 4 m/S 627 mmHg 95%
    04:00 -2°C° 0.3 mm 4 m/S 627 mmHg 95%
    05:00 -3°C° 0.3 mm 4 m/S 627 mmHg 94%
    06:00 -3°C° 0.3 mm 4 m/S 627 mmHg 93%
    07:00 -3°C° 0.4 mm 4 m/S 627 mmHg 93%
    08:00 -3°C° 0.4 mm 4 m/S 628 mmHg 92%
    09:00 -4°C° 0 mm 4 m/S 628 mmHg 92%
    10:00 -4°C° 0.6 mm 4 m/S 628 mmHg 92%
    11:00 -5°C° 0.6 mm 5 m/S 628 mmHg 91%
    12:00 -5°C° 0.6 mm 5 m/S 628 mmHg 91%
    13:00 -5°C° 0.7 mm 5 m/S 628 mmHg 91%
    14:00 -5°C° 0.7 mm 5 m/S 628 mmHg 91%
    15:00 -4°C° 0.7 mm 4 m/S 628 mmHg 91%
    16:00 -4°C° 0.7 mm 4 m/S 628 mmHg 92%
    17:00 -4°C° 0.7 mm 4 m/S 628 mmHg 92%
    18:00 -4°C° 0.7 mm 3 m/S 628 mmHg 92%
    19:00 -4°C° 0.6 mm 3 m/S 629 mmHg 92%
    20:00 -4°C° 0.6 mm 3 m/S 629 mmHg 92%
    21:00 -4°C° 0.6 mm 3 m/S 629 mmHg 92%
    22:00 -4°C° 0.3 mm 3 m/S 629 mmHg 92%
    23:00 -3°C° 0.3 mm 2 m/S 629 mmHg 93%

    Morgen, 26 März, Dienstag

    Zeit Temperatur Niederschläge Wind Luftdruck Luftfeuchtigkeit
    00:00 -3°C° 0.3 mm 2 m/S 630 mmHg 93%
    01:00 -3°C° 0.1 mm 2 m/S 630 mmHg 93%
    02:00 -3°C° 0.1 mm 2 m/S 630 mmHg 94%
    03:00 -3°C° 0.1 mm 2 m/S 630 mmHg 94%
    04:00 -3°C° 0.1 mm 2 m/S 630 mmHg 95%
    05:00 -3°C° 0.1 mm 2 m/S 630 mmHg 95%
    06:00 -3°C° 0.1 mm 2 m/S 630 mmHg 96%
    07:00 -2°C° 0.1 mm 2 m/S 630 mmHg 95%
    08:00 -2°C° 0.1 mm 2 m/S 630 mmHg 93%
    09:00 -1°C° 0.1 mm 2 m/S 630 mmHg 92%
    10:00 -1°C° 0 mm 3 m/S 630 mmHg 91%
    11:00 -1°C° 0 mm 3 m/S 630 mmHg 90%
    12:00 -1°C° 0 mm 3 m/S 630 mmHg 89%
    13:00 0°C° 0 mm 3 m/S 629 mmHg 89%
    14:00 0°C° 0 mm 3 m/S 629 mmHg 88%
    15:00 +1°C° 0 mm 2 m/S 629 mmHg 87%
    16:00 +1°C° 0 mm 2 m/S 629 mmHg 88%
    17:00 -1°C° 0 mm 2 m/S 629 mmHg 90%
    18:00 -1°C° 0 mm 2 m/S 629 mmHg 91%
    19:00 +1°C° 0.2 mm 1 m/S 629 mmHg 90%
    20:00 +1°C° 0.2 mm 1 m/S 629 mmHg 90%
    21:00 +1°C° 0.2 mm 1 m/S 629 mmHg 90%
    22:00 +1°C° 0.1 mm 1 m/S 629 mmHg 89%
    23:00 +1°C° 0.1 mm 1 m/S 629 mmHg 88%

    übermorgen, 27 März, Mittwoch

    Zeit Temperatur Niederschläge Wind Luftdruck Luftfeuchtigkeit
    00:00 +1°C° 0.1 mm 1 m/S 629 mmHg 87%
    01:00 +1°C° 0.1 mm 1 m/S 628 mmHg 85%
    02:00 +1°C° 0.1 mm 1 m/S 628 mmHg 84%
    03:00 +1°C° 0.1 mm 1 m/S 628 mmHg 83%
    04:00 +1°C° 0 mm 1 m/S 628 mmHg 80%
    05:00 +2°C° 0 mm 1 m/S 628 mmHg 78%
    06:00 +1°C° 0 mm 2 m/S 628 mmHg 76%
    07:00 +2°C° 0 mm 2 m/S 629 mmHg 75%
    08:00 +3°C° 0 mm 2 m/S 629 mmHg 73%
    09:00 +5°C° 0 mm 2 m/S 630 mmHg 72%
    10:00 +4°C° 0 mm 3 m/S 630 mmHg 69%
    11:00 +5°C° 0 mm 3 m/S 630 mmHg 66%
    12:00 +7°C° 0 mm 3 m/S 630 mmHg 64%
    13:00 +7°C° 0 mm 3 m/S 630 mmHg 63%
    14:00 +8°C° 0 mm 3 m/S 630 mmHg 62%
    15:00 +8°C° 0 mm 3 m/S 630 mmHg 62%
    16:00 +7°C° 0 mm 2 m/S 630 mmHg 62%
    17:00 +6°C° 0 mm 2 m/S 629 mmHg 63%
    18:00 +5°C° 0 mm 2 m/S 629 mmHg 64%
    19:00 +5°C° 0 mm 2 m/S 630 mmHg 64%
    20:00 +5°C° 0 mm 2 m/S 630 mmHg 64%
    21:00 +5°C° 0 mm 2 m/S 631 mmHg 64%
    22:00 +4°C° 0 mm 2 m/S 631 mmHg 64%
    23:00 +4°C° 0 mm 2 m/S 630 mmHg 64%

    28 März, Donnerstag

    Zeit Temperatur Niederschläge Wind Luftdruck Luftfeuchtigkeit
    00:00 +4°C° 0 mm 2 m/S 630 mmHg 64%
    01:00 +4°C° 0 mm 2 m/S 630 mmHg 65%
    02:00 +4°C° 0 mm 2 m/S 630 mmHg 65%
    03:00 +3°C° 0 mm 2 m/S 630 mmHg 65%
    04:00 +3°C° 0.1 mm 2 m/S 631 mmHg 67%
    05:00 +3°C° 0.1 mm 2 m/S 631 mmHg 69%
    06:00 +4°C° 0.1 mm 1 m/S 631 mmHg 71%
    07:00 +4°C° 0.4 mm 1 m/S 632 mmHg 72%
    08:00 +5°C° 0.4 mm 1 m/S 632 mmHg 73%
    09:00 +5°C° 0.4 mm 1 m/S 633 mmHg 74%
    10:00 +5°C° 0.3 mm 1 m/S 633 mmHg 73%
    11:00 +6°C° 0.3 mm 1 m/S 633 mmHg 73%
    12:00 +5°C° 0.3 mm 2 m/S 633 mmHg 72%
    13:00 +5°C° 0.2 mm 2 m/S 632 mmHg 74%
    14:00 +5°C° 0.2 mm 2 m/S 632 mmHg 76%
    15:00 +5°C° 0.2 mm 2 m/S 632 mmHg 77%
    16:00 +4°C° 0.1 mm 2 m/S 632 mmHg 81%
    17:00 +4°C° 0.1 mm 2 m/S 631 mmHg 84%
    18:00 +3°C° 0.1 mm 2 m/S 631 mmHg 88%
    19:00 +3°C° 0.1 mm 2 m/S 631 mmHg 88%
    20:00 +3°C° 0.1 mm 2 m/S 632 mmHg 88%
    21:00 +4°C° 0.1 mm 1 m/S 632 mmHg 89%
    22:00 +4°C° 0.1 mm 1 m/S 631 mmHg 87%
    23:00 +3°C° 0.1 mm 1 m/S 631 mmHg 86%

    29 März, Freitag

    Zeit Temperatur Niederschläge Wind Luftdruck Luftfeuchtigkeit
    00:00 +3°C° 0.1 mm 1 m/S 631 mmHg 85%
    01:00 +3°C° 0 mm 1 m/S 631 mmHg 83%
    02:00 +3°C° 0 mm 1 m/S 631 mmHg 80%
    03:00 +2°C° 0 mm 1 m/S 631 mmHg 78%
    04:00 +2°C° 0 mm 1 m/S 631 mmHg 79%
    05:00 +2°C° 0 mm 1 m/S 631 mmHg 80%
    06:00 +1°C° 0 mm 1 m/S 631 mmHg 81%
    07:00 +3°C° 0 mm 1 m/S 632 mmHg 78%
    08:00 +3°C° 0 mm 2 m/S 632 mmHg 75%
    09:00 +5°C° 0 mm 2 m/S 633 mmHg 72%
    10:00 +5°C° 0 mm 3 m/S 633 mmHg 69%
    11:00 +5°C° 0 mm 3 m/S 633 mmHg 67%
    12:00 +7°C° 0 mm 3 m/S 632 mmHg 65%
    13:00 +7°C° 0 mm 3 m/S 632 mmHg 64%
    14:00 +7°C° 0 mm 3 m/S 631 mmHg 64%
    15:00 +7°C° 0 mm 3 m/S 631 mmHg 63%
    16:00 +5°C° 0 mm 3 m/S 630 mmHg 68%
    17:00 +5°C° 0 mm 2 m/S 630 mmHg 72%
    18:00 +4°C° 0 mm 2 m/S 630 mmHg 77%
    19:00 +4°C° 0 mm 2 m/S 630 mmHg 78%
    20:00 +3°C° 0 mm 2 m/S 630 mmHg 80%
    21:00 +3°C° 0 mm 2 m/S 630 mmHg 81%
    22:00 +3°C° 0.1 mm 2 m/S 630 mmHg 81%
    23:00 +3°C° 0.1 mm 2 m/S 630 mmHg 80%

    30 März, Samstag

    Zeit Temperatur Niederschläge Wind Luftdruck Luftfeuchtigkeit
    00:00 +3°C° 0.1 mm 2 m/S 630 mmHg 80%
    01:00 +3°C° 0.1 mm 2 m/S 630 mmHg 82%
    02:00 +3°C° 0.1 mm 2 m/S 630 mmHg 84%
    03:00 +1°C° 0.1 mm 3 m/S 630 mmHg 86%
    04:00 +1°C° 0.1 mm 3 m/S 630 mmHg 87%
    05:00 +1°C° 0.1 mm 3 m/S 630 mmHg 89%
    06:00 +1°C° 0.1 mm 3 m/S 631 mmHg 90%
    07:00 0°C° 0.1 mm 4 m/S 631 mmHg 88%
    08:00 0°C° 0.1 mm 4 m/S 632 mmHg 85%
    09:00 +1°C° 0.1 mm 4 m/S 632 mmHg 83%
    10:00 +1°C° 0 mm 4 m/S 632 mmHg 81%
    11:00 +3°C° 0 mm 4 m/S 632 mmHg 80%
    12:00 +3°C° 0 mm 4 m/S 632 mmHg 79%
    13:00 +3°C° 0 mm 4 m/S 631 mmHg 80%
    14:00 +1°C° 0 mm 4 m/S 631 mmHg 82%
    15:00 +1°C° 0 mm 4 m/S 631 mmHg 83%
    16:00 +1°C° 0.1 mm 4 m/S 631 mmHg 86%
    17:00 0°C° 0.1 mm 4 m/S 631 mmHg 89%
    18:00 -1°C° 0.1 mm 4 m/S 631 mmHg 92%
    19:00 -1°C° 0.1 mm 4 m/S 631 mmHg 93%
    20:00 -1°C° 0.1 mm 4 m/S 632 mmHg 94%
    21:00 0°C° 0.1 mm 3 m/S 632 mmHg 94%
    22:00 0°C° 0.1 mm 3 m/S 632 mmHg 95%
    23:00 0°C° 0.1 mm 3 m/S 632 mmHg 95%
    Mehr zeigen